Date String (YYYY-MM-DD hh:mm:ss) UTC,Instrument flags,Ambient pressure (hPa),Sample flow (lpm),Bypass flow (lpm),Sample temperature (°C),Ambient temperature (°C),ASC tube jacket temperature (°C),LED temperature (°C),Box temperature (°C),Sample RH (%),Span deviation,Mass concentration (μg/m³),Mass concentration (μg/m³),Mass concentration (μg/m³)
DateTimeUTC,F1_M11,P_M11,Q1_M11,Q2_M11,T1_M11,T2_M11,T3_M11,T4_M11,T5_M11,U1_M11,ZSPAN_M11,X0_M11,X2_M11,X1_M11
2022-03-21 12:00:00,,0822.9,5.00,0.00,24.1,23.3,00.0,33.2,25.8,15.1,0000.0,0014.05,0002.26,0000.98
2022-03-21 12:01:00,,0823.0,5.00,0.00,24.1,23.2,00.0,33.2,25.7,15.2,0000.0,0013.74,0002.28,0000.96
2022-03-21 12:02:00,,0823.1,5.01,0.00,24.1,23.2,00.0,33.2,25.7,15.2,0000.0,0014.42,0002.32,0000.93
2022-03-21 12:03:00,,0823.1,5.00,0.00,24.0,23.2,00.0,33.2,25.6,15.1,0000.0,0013.82,0002.30,0000.92
2022-03-21 12:04:00,,0823.2,5.00,0.00,24.0,23.1,00.0,33.2,25.6,15.2,0000.0,0013.70,0002.31,0000.89
2022-03-21 12:05:00,,0823.1,4.99,0.00,24.0,23.1,00.0,33.1,25.6,15.2,0000.0,0013.59,0002.31,0000.86
2022-03-21 12:06:00,,0823.1,4.99,0.00,24.0,23.1,00.0,33.1,25.6,15.2,0000.0,0013.57,0002.36,0000.85
2022-03-21 12:07:00,,0823.1,5.00,0.00,23.9,23.1,00.0,33.1,25.6,15.2,0000.0,0013.64,0002.40,0000.85
2022-03-21 12:08:00,,0823.2,5.01,0.00,23.9,23.1,00.0,33.1,25.6,15.2,0000.0,0013.65,0002.36,0000.84
2022-03-21 12:09:00,,0823.2,5.00,0.00,23.9,23.1,00.0,33.1,25.5,15.1,0000.0,0013.45,0002.23,0000.81
2022-03-21 12:10:00,,0823.3,5.01,0.00,23.9,23.1,00.0,33.1,25.5,15.0,0000.0,0012.42,0002.22,0000.80
2022-03-21 12:11:00,,0823.2,4.99,0.00,23.9,23.0,00.0,33.1,25.5,14.9,0000.0,0011.57,0002.21,0000.79
2022-03-21 12:12:00,,0823.2,5.00,0.00,23.8,22.9,00.0,33.0,25.5,15.0,0000.0,0012.14,0002.13,0000.78
2022-03-21 12:13:00,,0823.2,5.02,0.00,23.8,22.9,00.0,33.0,25.4,14.9,0000.0,0011.40,0002.05,0000.78
2022-03-21 12:14:00,,0823.3,5.00,0.00,23.8,22.8,00.0,33.0,25.4,14.9,0000.0,0011.83,0002.09,0000.77
2022-03-21 12:15:00,,0823.3,5.00,0.00,23.7,22.8,00.0,33.0,25.3,14.9,0000.0,0012.25,0002.07,0000.77
2022-03-21 12:16:00,,0823.3,4.99,0.00,23.7,22.8,00.0,33.0,25.3,15.0,0000.0,0012.45,0002.07,0000.76
2022-03-21 12:17:00,,0823.3,5.01,0.00,23.7,22.7,00.0,32.9,25.3,15.0,0000.0,0012.37,0002.08,0000.74
2022-03-21 12:18:00,,0823.3,4.98,0.00,23.7,22.7,00.0,32.9,25.2,15.1,0000.0,0012.51,0002.03,0000.71
2022-03-21 12:19:00,,0823.3,5.01,0.00,23.6,22.7,00.0,32.9,25.2,15.0,0000.0,0012.95,0001.99,0000.70
2022-03-21 12:20:00,,0823.4,4.99,0.00,23.6,22.7,00.0,32.8,25.2,15.0,0000.0,0012.05,0001.98,0000.68
2022-03-21 12:21:00,,0823.3,4.99,0.00,23.6,22.6,00.0,32.8,25.1,15.0,0000.0,0012.46,0001.90,0000.66
2022-03-21 12:22:00,,0823.3,5.02,0.00,23.5,22.6,00.0,32.8,25.1,14.9,0000.0,0012.05,0001.85,0000.65
2022-03-21 12:23:00,,0823.4,4.99,0.00,23.5,22.5,00.0,32.8,25.0,14.8,0000.0,0011.36,0001.89,0000.65
2022-03-21 12:24:00,,0823.4,4.99,0.00,23.4,22.4,00.0,32.7,25.0,14.9,0000.0,0010.93,0001.86,0000.64
2022-03-21 12:25:00,,0823.4,5.00,0.00,23.4,22.4,00.0,32.7,25.0,14.9,0000.0,0010.67,0001.86,0000.64
2022-03-21 12:26:00,,0823.3,5.01,0.00,23.4,22.4,00.0,32.7,24.9,14.9,0000.0,0010.01,0001.81,0000.62
2022-03-21 12:27:00,,0823.3,4.98,0.00,23.3,22.3,00.0,32.6,24.9,14.9,0000.0,0009.74,0001.75,0000.61
2022-03-21 12:28:00,,0823.3,4.99,0.00,23.3,22.3,00.0,32.6,24.9,14.9,0000.0,0009.55,0001.64,0000.60
2022-03-21 12:29:00,,0823.4,4.99,0.00,23.3,22.3,00.0,32.6,24.9,15.0,0000.0,0009.83,0001.66,0000.59
2022-03-21 12:30:00,,0823.4,5.01,0.00,23.3,22.3,00.0,32.5,24.9,15.1,0000.0,0009.55,0001.77,0000.59
2022-03-21 12:31:00,,0823.3,5.01,0.00,23.2,22.3,00.0,32.5,24.8,15.1,0000.0,0009.23,0001.76,0000.59
2022-03-21 12:32:00,,0823.3,5.00,0.00,23.2,22.3,00.0,32.5,24.8,15.1,0000.0,0008.65,0001.80,0000.59
2022-03-21 12:33:00,,0823.4,4.99,0.00,23.2,22.3,00.0,32.5,24.8,15.0,0000.0,0008.56,0001.83,0000.58
2022-03-21 12:34:00,,0823.4,5.01,0.00,23.2,22.2,00.0,32.4,24.8,14.9,0000.0,0008.94,0001.86,0000.57
2022-03-21 12:35:00,,0823.4,5.00,0.00,23.2,22.2,00.0,32.4,24.8,14.9,0000.0,0008.92,0001.86,0000.57
2022-03-21 12:36:00,,0823.4,4.99,0.00,23.1,22.2,00.0,32.4,24.8,14.8,0000.0,0008.73,0001.75,0000.56
2022-03-21 12:37:00,,0823.4,5.00,0.00,23.1,22.2,00.0,32.4,24.8,14.8,0000.0,0008.87,0001.76,0000.56
2022-03-21 12:38:00,,0823.4,5.01,0.00,23.1,22.2,00.0,32.4,24.8,14.8,0000.0,0008.44,0001.76,0000.56
2022-03-21 12:39:00,,0823.4,4.99,0.00,23.1,22.2,00.0,32.3,24.7,14.8,0000.0,0008.29,0001.73,0000.56
2022-03-21 12:40:00,,0823.4,5.00,0.00,23.1,22.2,00.0,32.3,24.7,14.8,0000.0,0007.92,0001.69,0000.56
2022-03-21 12:41:00,,0823.4,5.00,0.00,23.1,22.2,00.0,32.3,24.7,14.8,0000.0,0007.55,0001.55,0000.56
2022-03-21 12:42:00,,0823.5,5.00,0.00,23.1,22.2,00.0,32.3,24.7,14.8,0000.0,0007.84,0001.49,0000.57
2022-03-21 12:43:00,,0823.4,4.99,0.00,23.0,22.2,00.0,32.3,24.7,14.8,0000.0,0008.30,0001.44,0000.56
2022-03-21 12:44:00,,0823.5,5.00,0.00,23.0,22.2,00.0,32.3,24.7,14.9,0000.0,0008.49,0001.36,0000.56
2022-03-21 12:45:00,,0823.6,5.00,0.00,23.0,22.2,00.0,32.2,24.6,14.9,0000.0,0008.04,0001.27,0000.57
2022-03-21 12:46:00,,0823.7,5.01,0.00,23.0,22.1,00.0,32.2,24.6,15.0,0000.0,0008.44,0001.26,0000.57
2022-03-21 12:47:00,,0823.6,4.99,0.00,23.0,22.1,00.0,32.2,24.6,15.1,0000.0,0008.85,0001.27,0000.57
2022-03-21 12:48:00,,0823.6,4.99,0.00,23.0,22.1,00.0,32.2,24.6,15.1,0000.0,0008.89,0001.30,0000.57
2022-03-21 12:49:00,,0823.6,5.00,0.00,23.0,22.1,00.0,32.2,24.6,15.1,0000.0,0009.07,0001.38,0000.57
2022-03-21 12:50:00,,0823.6,5.00,0.00,22.9,22.1,00.0,32.2,24.6,15.1,0000.0,0009.15,0001.40,0000.57
2022-03-21 12:51:00,,0823.6,5.00,0.00,22.9,22.1,00.0,32.1,24.6,15.1,0000.0,0009.36,0001.40,0000.57
2022-03-21 12:52:00,,0823.6,5.00,0.00,22.9,22.1,00.0,32.1,24.6,15.2,0000.0,0009.20,0001.39,0000.57
2022-03-21 12:53:00,,0823.6,5.00,0.00,22.9,22.0,00.0,32.1,24.6,15.2,0000.0,0009.70,0001.45,0000.57
2022-03-21 12:54:00,,0823.6,5.02,0.00,22.9,22.0,00.0,32.1,24.6,15.1,0000.0,0009.49,0001.52,0000.58
2022-03-21 12:55:00,,0823.6,5.00,0.00,22.9,22.0,00.0,32.1,24.6,15.1,0000.0,0010.05,0001.56,0000.58
2022-03-21 12:56:00,,0823.6,5.00,0.00,22.9,21.9,00.0,32.1,24.5,15.1,0000.0,0011.03,0001.58,0000.58
2022-03-21 12:57:00,,0823.6,5.00,0.00,22.9,21.9,00.0,32.0,24.5,15.2,0000.0,0011.53,0001.56,0000.58
2022-03-21 12:58:00,,0823.6,5.00,0.00,22.8,21.9,00.0,32.0,24.5,15.2,0000.0,0010.92,0001.60,0000.57
2022-03-21 12:59:00,,0823.7,5.00,0.00,22.8,21.8,00.0,32.0,24.4,15.3,0000.0,0010.58,0001.59,0000.58
